Regional Weather Roundup
Issued by NWS Raleigh/Durham, NC

Home | Current Version | Previous Version | Text Only | Print | Product List | Glossary On
Versions: 1 2 3 4 5 6 7 8 9 10 11 12 13 14 15 16 17 18 19 20 21 22 23 24 25 26 27 28 29 30 31 32 33 34 35 36 37 38 39 40 41 42 43 44 45 46 47 48 49 50
000
ASUS42 KRAH 281210
RWRRAH
NORTH CAROLINA WEATHER ROUNDUP
NATIONAL WEATHER SERVICE RALEIGH NC
700 AM EST WED JAN 28 2015

NOTE: "FAIR" INDICATES FEW OR NO CLOUDS BELOW 12,000 FEET WITH NO
SIGNIFICANT WEATHER AND/OR OBSTRUCTIONS TO VISIBILITY.

NCZ001-053-055-056-065-067-281300-
WESTERN NORTH CAROLINA

CITY           SKY/WX    TMP DP  RH WIND       PRES   REMARKS
ASHEVILLE      FAIR      22  14  71 N13G22    30.16R WCI  10
JEFFERSON      CLEAR     16   9  74 SE3       30.07R
MORGANTON      CLEAR     27   9  47 NW5       30.21R WCI  21
HICKORY        CLEAR     27   6  41 N7        30.15R WCI  19
RUTHERFORDTON  FAIR      28   6  38 CALM      30.18R
MOUNT AIRY     CLEAR     26  15  63 NW12G21   30.17R WCI  16
BOONE          CLEAR     17   5  59 W14G23    30.10R WCI   3
$$

NCZ021-022-025-041-071-084-088-281300-
CENTRAL NORTH CAROLINA

CITY           SKY/WX    TMP DP  RH WIND       PRES   REMARKS
CHARLOTTE      CLEAR     25  10  53 N6        30.17R WCI  18
GREENSBORO     CLEAR     23  13  65 CALM      30.14R
WINSTON-SALEM  CLEAR     26  13  57 NW8       30.16R WCI  18
RALEIGH-DURHAM CLEAR     26  13  57 N3        30.15R
FORT BRAGG     CLEAR     27  14  57 N7        30.16R WCI  19
FAYETTEVILLE   CLEAR     28  14  55 N10       30.16R WCI  19
BURLINGTON     CLEAR     24  12  60 W6        30.15R WCI  17
LAURINBURG     CLEAR     26  13  57 N5        30.17R WCI  20
$$

NCZ011-015-027-028-043-044-047-080-103-281300-
NORTHEASTERN NORTH CAROLINA

CITY           SKY/WX    TMP DP  RH WIND       PRES   REMARKS
ROCKY MT-WILSO CLEAR     28  17  63 NW8       30.15R WCI  20
GREENVILLE     CLEAR     30  21  69 N3        30.15R
WASHINGTON     CLEAR     30  19  64 N8        30.13R WCI  22
ELIZABETH CITY CLEAR     29  17  61 N15       30.12R WCI  18
MANTEO         PTCLDY    30  23  74 N12G24    30.09R WCI  21
CAPE HATTERAS  MOCLDY    33  24  69 N8        30.07R WCI  26
$$

NCZ078-087-090-091-093-098-101-281300-
SOUTHEASTERN NORTH CAROLINA

CITY           SKY/WX    TMP DP  RH WIND       PRES   REMARKS
LUMBERTON      CLEAR     30  16  56 N7        30.16R WCI  23
GOLDSBORO      CLEAR     27  22  80 NW3       30.13R
KINSTON        CLEAR     27  19  74 NW3       30.14R
KENANSVILLE    CLEAR     27  18  67 NW5       30.15R WCI  22
NEW BERN       CLEAR     30  21  69 NW7       30.13R WCI  23
CHERRY POINT   CLEAR     30  22  72 NW8       30.11R WCI  22
BEAUFORT       CLEAR     31  25  78 N13       30.09R WCI  21
JACKSONVILLE   CLEAR     28  18  66 NW10      30.12R WCI  19
WILMINGTON     CLEAR     28  18  66 N10       30.13R WCI  19
$$




USA.gov is the U.S. government's official web portal to all federal, state and local government web resources and services.